Location: ?
(35.4554°N, 139.3092°E)
Time: 22:37:14
(UTC+00:00)

Okean 2 Rocket - Pass Details

Date: 21 April 2021
Orbit: 616 x 642 km, 82.5° (Epoch: 10 May)

Event Time Altitude Azimuth Distance (km) Brightness Sun altitude
Rises 18:12:22 0° 349° (NNW) 2,910 6.8 -21.1°
Reaches altitude 10° 18:14:37 10° 346° (NNW) 1,995 5.9 -20.7°
Maximum altitude 18:18:58 61° 266° (W) 703 3.0 -20.0°
Enters shadow 18:20:05 45° 210° (SSW) 848 3.3 -19.8°
